,,,PA_Meas_PMT16A,,PR_Meas_QMR101_102,,RH_Meas_QMH101,,SR_Meas_QMS101,,TA_Meas_QMH101,,GenWind,,GenWind,
date,time,status,PA,status,PR,status,RH,status,SR,status,TA,status,DirAvg,status,SpdAvg,
2013-01-13, 00:00:05,VALID,1009.58,VALID,0,VALID,98.2655,VALID,0.112112,VALID,25.4287,VALID,332,VALID,0.449609,
2013-01-13, 00:01:05,VALID,1009.61,VALID,0,VALID,98.2655,VALID,0,VALID,25.4072,VALID,332,VALID,0.685156,
2013-01-13, 00:02:05,VALID,1009.55,VALID,0,VALID,98.3112,VALID,0.112112,VALID,25.4072,VALID,332,VALID,0.0445312,
2013-01-13, 00:03:05,VALID,1009.54,VALID,0,VALID,98.5324,VALID,0.112112,VALID,25.3858,VALID,331,VALID,0.34375,
2013-01-13, 00:04:05,VALID,1009.51,VALID,0,VALID,98.6162,VALID,0,VALID,25.3877,VALID,331,VALID,0.339063,
2013-01-13, 00:05:05,VALID,1009.46,VALID,0,VALID,98.5552,VALID,0,VALID,25.4267,VALID,332,VALID,0.0972656,
2013-01-13, 00:06:05,VALID,1009.43,VALID,0,VALID,98.4714,VALID,0,VALID,25.3877,VALID,332,VALID,0.447656,
2013-01-13, 00:07:05,VALID,1009.41,VALID,0,VALID,98.3265,VALID,0,VALID,25.3897,VALID,331,VALID,0.222656,
2013-01-13, 00:08:05,VALID,1009.37,VALID,0,VALID,98.2731,VALID,0,VALID,25.3897,VALID,338,VALID,0.919531,
2013-01-13, 00:09:05,VALID,1009.34,VALID,0,VALID,98.0596,VALID,0,VALID,25.3897,VALID,306,VALID,0.512109,
2013-01-13, 00:10:05,VALID,1009.33,VALID,0,VALID,98.174,VALID,0,VALID,25.3897,VALID,305,VALID,0.191406,
2013-01-13, 00:11:05,VALID,1009.3,VALID,0,VALID,98.1053,VALID,0,VALID,25.3897,VALID,314,VALID,0.812891,
2013-01-13, 00:12:05,VALID,1009.29,VALID,0,VALID,98.2578,VALID,0,VALID,25.3488,VALID,315,VALID,0.245312,
2013-01-13, 00:13:05,VALID,1009.25,VALID,0,VALID,98.4027,VALID,0,VALID,25.3702,VALID,313,VALID,0.23125,
2013-01-13, 00:14:05,VALID,1009.22,VALID,0,VALID,98.5552,VALID,0,VALID,25.3293,VALID,314,VALID,0.560547,
2013-01-13, 00:15:05,VALID,1009.2,VALID,0,VALID,98.906,VALID,0.112112,VALID,25.3293,VALID,315,VALID,0.521875,
2013-01-13, 00:16:05,VALID,1009.17,VALID,0,VALID,99.1043,VALID,0,VALID,25.3312,VALID,318,VALID,0.547656,
2013-01-13, 00:17:05,VALID,1009.14,VALID,0,VALID,99.5313,VALID,0,VALID,25.2922,VALID,334,VALID,0.420312,
2013-01-13, 00:18:05,VALID,1009.13,VALID,0,VALID,99.9202,VALID,0,VALID,25.2708,VALID,335,VALID,0.188672,
2013-01-13, 00:19:05,VALID,1009.14,VALID,0,VALID,100.088,VALID,0,VALID,25.2727,VALID,335,VALID,0.401563,
2013-01-13, 00:20:05,VALID,1009.11,VALID,0,VALID,100.355,VALID,0,VALID,25.2318,VALID,335,VALID,0.448438,
2013-01-13, 00:21:05,VALID,1009.1,VALID,0,VALID,100.393,VALID,0,VALID,25.2318,VALID,302,VALID,0.723828,
2013-01-13, 00:22:05,VALID,1009.07,VALID,0,VALID,100.462,VALID,0.112112,VALID,25.2513,VALID,299,VALID,0.644922,
2013-01-13, 00:23:05,VALID,1009.07,VALID,0,VALID,100.454,VALID,0,VALID,25.2922,VALID,308,VALID,0.669141,
2013-01-13, 00:24:05,VALID,1009.03,VALID,0,VALID,100.393,VALID,0,VALID,25.2708,VALID,334,VALID,0.478906,
2013-01-13, 00:25:05,VALID,1009.03,VALID,0,VALID,100.332,VALID,0,VALID,25.2318,VALID,334,VALID,0.335156,
2013-01-13, 00:26:05,VALID,1008.99,VALID,0,VALID,100.355,VALID,0,VALID,25.2318,VALID,334,VALID,0.119141,
2013-01-13, 00:27:05,VALID,1008.96,VALID,0,VALID,100.515,VALID,0,VALID,25.2318,VALID,334,VALID,0.211719,
2013-01-13, 00:28:05,VALID,1008.95,VALID,0,VALID,100.69,VALID,0.112112,VALID,25.2337,VALID,334,VALID,0.242578,
2013-01-13, 00:29:05,VALID,1008.88,VALID,0,VALID,100.744,VALID,0,VALID,25.2123,VALID,334,VALID,0.534375,
2013-01-13, 00:30:05,VALID,1008.85,VALID,0,VALID,100.889,VALID,0.112112,VALID,25.1928,VALID,334,VALID,0.544141,
2013-01-13, 00:31:05,VALID,1008.82,VALID,0,VALID,101.087,VALID,0,VALID,25.1733,VALID,334,VALID,0.421094,
2013-01-13, 00:32:05,VALID,1008.77,VALID,0,VALID,101.14,VALID,0.112112,VALID,25.1538,VALID,334,VALID,0.440625,
2013-01-13, 00:33:05,VALID,1008.76,VALID,0,VALID,101.346,VALID,0.112112,VALID,25.1148,VALID,334,VALID,0.345703,
2013-01-13, 00:34:05,VALID,1008.72,VALID,0,VALID,101.4,VALID,0.112112,VALID,25.1148,VALID,334,VALID,0.275781,
2013-01-13, 00:35:05,VALID,1008.7,VALID,0,VALID,101.506,VALID,0,VALID,25.0759,VALID,334,VALID,0.417578,
2013-01-13, 00:36:05,VALID,1008.72,VALID,0,VALID,101.659,VALID,0.112112,VALID,25.0954,VALID,334,VALID,0.00195313,
2013-01-13, 00:37:05,VALID,1008.7,VALID,0,VALID,101.712,VALID,0.112112,VALID,25.0759,VALID,334,VALID,0,
2013-01-13, 00:38:05,VALID,1008.69,VALID,0,VALID,101.743,VALID,0.112112,VALID,25.0564,VALID,334,VALID,0.396094,
2013-01-13, 00:39:05,VALID,1008.72,VALID,0,VALID,101.979,VALID,0.112112,VALID,25.0778,VALID,334,VALID,0.330469,
2013-01-13, 00:40:05,VALID,1008.72,VALID,0,VALID,102.063,VALID,0,VALID,25.0369,VALID,334,VALID,0.119141,
2013-01-13, 00:41:05,VALID,1008.71,VALID,0,VALID,102.139,VALID,0.112112,VALID,25.0174,VALID,334,VALID,0.376953,
2013-01-13, 00:42:05,VALID,1008.76,VALID,0,VALID,102.216,VALID,0.112112,VALID,24.9979,VALID,334,VALID,0.273828,
2013-01-13, 00:43:05,VALID,1008.76,VALID,0,VALID,102.406,VALID,0.112112,VALID,24.9979,VALID,334,VALID,0.364062,
2013-01-13, 00:44:05,VALID,1008.78,VALID,0,VALID,102.399,VALID,0.112112,VALID,24.9784,VALID,334,VALID,0.328516,
2013-01-13, 00:45:05,VALID,1008.78,VALID,0,VALID,102.482,VALID,0,VALID,24.9589,VALID,334,VALID,0.190625,
2013-01-13, 00:46:05,VALID,1008.78,VALID,0,VALID,102.498,VALID,0,VALID,24.9589,VALID,334,VALID,0,
2013-01-13, 00:47:05,VALID,1008.76,VALID,0,VALID,102.681,VALID,0.112112,VALID,24.9394,VALID,334,VALID,0,
2013-01-13, 00:48:05,VALID,1008.76,VALID,0,VALID,102.788,VALID,0,VALID,24.9608,VALID,334,VALID,0,
2013-01-13, 00:49:05,VALID,1008.74,VALID,0,VALID,102.803,VALID,0.112112,VALID,24.9199,VALID,334,VALID,0,
2013-01-13, 00:50:05,VALID,1008.71,VALID,0,VALID,102.81,VALID,0.112112,VALID,24.9004,VALID,334,VALID,0,
2013-01-13, 00:51:05,VALID,1008.7,VALID,0,VALID,102.849,VALID,0.112112,VALID,24.9004,VALID,334,VALID,0,
2013-01-13, 00:52:05,VALID,1008.71,VALID,0,VALID,102.925,VALID,0.112112,VALID,24.9004,VALID,334,VALID,0,
2013-01-13, 00:53:05,VALID,1008.71,VALID,0,VALID,103.001,VALID,0,VALID,24.9004,VALID,334,VALID,0,
2013-01-13, 00:54:05,VALID,1008.7,VALID,0,VALID,103.001,VALID,0.112112,VALID,24.9004,VALID,334,VALID,0.175781,
2013-01-13, 00:55:05,VALID,1008.69,VALID,0,VALID,103.032,VALID,0.112112,VALID,24.9004,VALID,334,VALID,0.395703,
2013-01-13, 00:56:05,VALID,1008.7,VALID,0,VALID,103.024,VALID,0.112112,VALID,24.9199,VALID,334,VALID,0.167187,
2013-01-13, 00:57:05,VALID,1008.71,VALID,0,VALID,102.932,VALID,0.112112,VALID,24.9004,VALID,334,VALID,0.0464844,
2013-01-13, 00:58:05,VALID,1008.68,VALID,0,VALID,102.971,VALID,0.112112,VALID,24.9199,VALID,334,VALID,0,
2013-01-13, 00:59:05,VALID,1008.68,VALID,0,VALID,103.093,VALID,0.112112,VALID,24.9199,VALID,334,VALID,0,
2013-01-13, 01:00:05,VALID,1008.68,VALID,0,VALID,103.237,VALID,0.112112,VALID,24.9589,VALID,334,VALID,0,
2013-01-13, 01:01:05,VALID,1008.64,VALID,0,VALID,103.237,VALID,0.112112,VALID,24.9394,VALID,334,VALID,0.0648438,
2013-01-13, 01:02:05,VALID,1008.65,VALID,0,VALID,103.26,VALID,0.112112,VALID,24.9394,VALID,334,VALID,0,
2013-01-13, 01:03:05,VALID,1008.64,VALID,0,VALID,103.215,VALID,0.112112,VALID,24.9199,VALID,334,VALID,0.0046875,
2013-01-13, 01:04:05,VALID,1008.64,VALID,0,VALID,103.207,VALID,0.112112,VALID,24.9199,VALID,334,VALID,0.207422,
2013-01-13, 01:05:05,VALID,1008.65,VALID,0,VALID,103.237,VALID,0.112112,VALID,24.9199,VALID,334,VALID,0.194922,
2013-01-13, 01:06:05,VALID,1008.65,VALID,0,VALID,103.245,VALID,0.112112,VALID,24.9199,VALID,334,VALID,0.276563,
2013-01-13, 01:07:05,VALID,1008.64,VALID,0,VALID,103.237,VALID,0.112112,VALID,24.9004,VALID,334,VALID,0.223828,
2013-01-13, 01:08:05,VALID,1008.63,VALID,0,VALID,103.222,VALID,0.112112,VALID,24.9004,VALID,334,VALID,0.201562,
2013-01-13, 01:09:05,VALID,1008.64,VALID,0,VALID,103.359,VALID,0,VALID,24.9218,VALID,334,VALID,0.259375,
2013-01-13, 01:10:05,VALID,1008.68,VALID,0,VALID,103.306,VALID,0,VALID,24.8809,VALID,334,VALID,0.355078,
2013-01-13, 01:11:05,VALID,1008.68,VALID,0,VALID,103.382,VALID,0.112112,VALID,24.8809,VALID,334,VALID,0.187891,
2013-01-13, 01:12:05,VALID,1008.67,VALID,0,VALID,103.489,VALID,0.112112,VALID,24.8225,VALID,334,VALID,0.221484,
2013-01-13, 01:13:05,VALID,1008.67,VALID,0,VALID,103.512,VALID,0.112112,VALID,24.8438,VALID,334,VALID,0.241406,
2013-01-13, 01:14:05,VALID,1008.67,VALID,0,VALID,103.573,VALID,0.112112,VALID,24.803,VALID,334,VALID,0.214844,
2013-01-13, 01:15:05,VALID,1008.67,VALID,0,VALID,103.703,VALID,0,VALID,24.7835,VALID,334,VALID,0.220313,
2013-01-13, 01:16:05,VALID,1008.69,VALID,0,VALID,103.832,VALID,0.112112,VALID,24.7835,VALID,334,VALID,0.170703,
2013-01-13, 01:17:05,VALID,1008.7,VALID,0,VALID,103.87,VALID,0.112112,VALID,24.7835,VALID,334,VALID,0,
2013-01-13, 01:18:05,VALID,1008.72,VALID,0,VALID,103.916,VALID,0.112112,VALID,24.764,VALID,334,VALID,0,
2013-01-13, 01:19:05,VALID,1008.72,VALID,0,VALID,103.97,VALID,0.112112,VALID,24.7445,VALID,334,VALID,0,
2013-01-13, 01:20:05,VALID,1008.73,VALID,0,VALID,104,VALID,0.112112,VALID,24.764,VALID,334,VALID,0,
2013-01-13, 01:21:05,VALID,1008.7,VALID,0,VALID,104,VALID,0.112112,VALID,24.764,VALID,334,VALID,0,
2013-01-13, 01:22:05,VALID,1008.7,VALID,0,VALID,104,VALID,0.112112,VALID,24.7659,VALID,334,VALID,0,
2013-01-13, 01:23:05,VALID,1008.69,VALID,0,VALID,104,VALID,0,VALID,24.7854,VALID,334,VALID,0,
2013-01-13, 01:24:05,VALID,1008.72,VALID,0,VALID,104,VALID,0.112112,VALID,24.7835,VALID,334,VALID,0,
2013-01-13, 01:25:05,VALID,1008.69,VALID,0,VALID,104,VALID,0.112112,VALID,24.7659,VALID,334,VALID,0.242578,
2013-01-13, 01:26:05,VALID,1008.69,VALID,0,VALID,104,VALID,0.112112,VALID,24.725,VALID,334,VALID,0.179297,
2013-01-13, 01:27:05,VALID,1008.68,VALID,0,VALID,104,VALID,0.112112,VALID,24.7055,VALID,334,VALID,0.249219,
2013-01-13, 01:28:05,VALID,1008.67,VALID,0,VALID,104,VALID,0.112112,VALID,24.7074,VALID,334,VALID,0.148828,
2013-01-13, 01:29:05,VALID,1008.67,VALID,0,VALID,104,VALID,0,VALID,24.686,VALID,334,VALID,0.170312,
2013-01-13, 01:30:05,VALID,1008.63,VALID,0,VALID,104,VALID,0.112112,VALID,24.6879,VALID,334,VALID,0.144141,
2013-01-13, 01:31:05,VALID,1008.62,VALID,0,VALID,104,VALID,0.112112,VALID,24.6666,VALID,334,VALID,0.201953,
2013-01-13, 01:32:05,VALID,1008.58,VALID,0,VALID,104,VALID,0,VALID,24.6294,VALID,334,VALID,0.208984,
2013-01-13, 01:33:05,VALID,1008.55,VALID,0,VALID,104,VALID,0,VALID,24.6489,VALID,334,VALID,0.201953,
2013-01-13, 01:34:05,VALID,1008.54,VALID,0,VALID,104,VALID,0,VALID,24.6294,VALID,334,VALID,0.165625,
2013-01-13, 01:35:05,VALID,1008.5,VALID,0,VALID,104,VALID,0,VALID,24.6099,VALID,334,VALID,0.320313,
2013-01-13, 01:36:05,VALID,1008.51,VALID,0,VALID,104,VALID,0,VALID,24.5905,VALID,334,VALID,0.235938,
2013-01-13, 01:37:05,VALID,1008.47,VALID,0,VALID,104,VALID,0,VALID,24.571,VALID,334,VALID,0.282422,
2013-01-13, 01:38:05,VALID,1008.47,VALID,0,VALID,104,VALID,0,VALID,24.5515,VALID,334,VALID,0.184766,
2013-01-13, 01:39:05,VALID,1008.47,VALID,0,VALID,104,VALID,0,VALID,24.532,VALID,334,VALID,0.236328,
2013-01-13, 01:40:05,VALID,1008.47,VALID,0,VALID,104,VALID,0,VALID,24.532,VALID,334,VALID,0.271484,
2013-01-13, 01:41:05,VALID,1008.49,VALID,0,VALID,104,VALID,0,VALID,24.5125,VALID,334,VALID,0.150391,
2013-01-13, 01:42:05,VALID,1008.49,VALID,0,VALID,104,VALID,0,VALID,24.5125,VALID,334,VALID,0,
2013-01-13, 01:43:05,VALID,1008.47,VALID,0,VALID,104,VALID,0,VALID,24.5144,VALID,334,VALID,0,
2013-01-13, 01:44:05,VALID,1008.49,VALID,0,VALID,104,VALID,0,VALID,24.493,VALID,334,VALID,0,
2013-01-13, 01:45:05,VALID,1008.5,VALID,0,VALID,104,VALID,0,VALID,24.4735,VALID,334,VALID,0,
2013-01-13, 01:46:05,VALID,1008.49,VALID,0,VALID,104,VALID,0,VALID,24.454,VALID,334,VALID,0,
2013-01-13, 01:47:05,VALID,1008.49,VALID,0,VALID,104,VALID,0,VALID,24.454,VALID,334,VALID,0.157031,
2013-01-13, 01:48:05,VALID,1008.49,VALID,0,VALID,104,VALID,0,VALID,24.454,VALID,334,VALID,0,
2013-01-13, 01:49:05,VALID,1008.5,VALID,0,VALID,104,VALID,0,VALID,24.4345,VALID,334,VALID,0,
2013-01-13, 01:50:05,VALID,1008.5,VALID,0,VALID,104,VALID,0,VALID,24.4559,VALID,334,VALID,0,
2013-01-13, 01:51:05,VALID,1008.47,VALID,0,VALID,104,VALID,0,VALID,24.4559,VALID,334,VALID,0,
2013-01-13, 01:52:05,VALID,1008.49,VALID,0,VALID,104,VALID,0,VALID,24.4559,VALID,334,VALID,0,
2013-01-13, 01:53:05,VALID,1008.47,VALID,0,VALID,104,VALID,0,VALID,24.4559,VALID,334,VALID,0,
2013-01-13, 01:54:05,VALID,1008.48,VALID,0,VALID,104,VALID,0,VALID,24.4345,VALID,334,VALID,0,
2013-01-13, 01:55:05,VALID,1008.46,VALID,0,VALID,104,VALID,0,VALID,24.4754,VALID,334,VALID,0,
2013-01-13, 01:56:05,VALID,1008.5,VALID,0,VALID,104,VALID,0,VALID,24.4345,VALID,334,VALID,0,
2013-01-13, 01:57:05,VALID,1008.52,VALID,0,VALID,104,VALID,0,VALID,24.454,VALID,334,VALID,0,
2013-01-13, 01:58:05,VALID,1008.57,VALID,0,VALID,104,VALID,0,VALID,24.454,VALID,334,VALID,0,
2013-01-13, 01:59:05,VALID,1008.55,VALID,0,VALID,104,VALID,0,VALID,24.454,VALID,334,VALID,0,
2013-01-13, 02:00:05,VALID,1008.58,VALID,0,VALID,104,VALID,0,VALID,24.454,VALID,334,VALID,0,
2013-01-13, 02:01:05,VALID,1008.56,VALID,0,VALID,104,VALID,0,VALID,24.4754,VALID,334,VALID,0,
2013-01-13, 02:02:05,VALID,1008.55,VALID,0,VALID,104,VALID,0,VALID,24.4754,VALID,334,VALID,0,
2013-01-13, 02:03:05,VALID,1008.54,VALID,0,VALID,104,VALID,0,VALID,24.4735,VALID,334,VALID,0,
2013-01-13, 02:04:05,VALID,1008.53,VALID,0,VALID,104,VALID,0,VALID,24.4754,VALID,334,VALID,0.150391,
2013-01-13, 02:05:05,VALID,1008.54,VALID,0,VALID,104,VALID,0,VALID,24.5144,VALID,334,VALID,0.280469,
2013-01-13, 02:06:05,VALID,1008.55,VALID,0,VALID,104,VALID,0,VALID,24.493,VALID,334,VALID,0.253906,
2013-01-13, 02:07:05,VALID,1008.54,VALID,0,VALID,104,VALID,0,VALID,24.5144,VALID,334,VALID,0.11875,
2013-01-13, 02:08:05,VALID,1008.58,VALID,0,VALID,104,VALID,0,VALID,24.493,VALID,334,VALID,0,
2013-01-13, 02:09:05,VALID,1008.6,VALID,0,VALID,104,VALID,0,VALID,24.4949,VALID,334,VALID,0,
2013-01-13, 02:10:05,VALID,1008.6,VALID,0,VALID,104,VALID,0,VALID,24.4949,VALID,334,VALID,0,
2013-01-13, 02:11:05,VALID,1008.61,VALID,0,VALID,104,VALID,0,VALID,24.4735,VALID,334,VALID,0,
2013-01-13, 02:12:05,VALID,1008.62,VALID,0,VALID,104,VALID,0,VALID,24.4754,VALID,334,VALID,0,
2013-01-13, 02:13:05,VALID,1008.63,VALID,0,VALID,104,VALID,0,VALID,24.5144,VALID,334,VALID,0,
2013-01-13, 02:14:05,VALID,1008.67,VALID,0,VALID,104,VALID,0,VALID,24.5144,VALID,334,VALID,0.108594,
2013-01-13, 02:15:05,VALID,1008.65,VALID,0,VALID,104,VALID,0,VALID,24.5338,VALID,334,VALID,0.0871094,
2013-01-13, 02:16:05,VALID,1008.7,VALID,0,VALID,104,VALID,0,VALID,24.532,VALID,334,VALID,0.0511719,
2013-01-13, 02:17:05,VALID,1008.71,VALID,0,VALID,104,VALID,0,VALID,24.5515,VALID,334,VALID,0.05,
2013-01-13, 02:18:05,VALID,1008.73,VALID,0,VALID,104,VALID,0,VALID,24.571,VALID,334,VALID,0,
2013-01-13, 02:19:05,VALID,1008.71,VALID,0,VALID,104,VALID,0,VALID,24.5496,VALID,334,VALID,0,
2013-01-13, 02:20:05,VALID,1008.71,VALID,0,VALID,104,VALID,0,VALID,24.5691,VALID,334,VALID,0.084375,
2013-01-13, 02:21:05,VALID,1008.7,VALID,0,VALID,104,VALID,0,VALID,24.5496,VALID,334,VALID,0.169141,
2013-01-13, 02:22:04,VALID,1008.69,VALID,0,VALID,104,VALID,0,VALID,24.5496,VALID,334,VALID,0.0835937,
2013-01-13, 02:23:04,VALID,1008.7,VALID,0,VALID,104,VALID,0,VALID,24.5515,VALID,334,VALID,0,
2013-01-13, 02:24:04,VALID,1008.69,VALID,0,VALID,104,VALID,0,VALID,24.571,VALID,334,VALID,0.153906,
2013-01-13, 02:25:04,VALID,1008.7,VALID,0,VALID,104,VALID,0,VALID,24.5515,VALID,334,VALID,0,
2013-01-13, 02:26:04,VALID,1008.71,VALID,0,VALID,104,VALID,0,VALID,24.5515,VALID,334,VALID,0,
2013-01-13, 02:27:04,VALID,1008.75,VALID,0,VALID,104,VALID,0,VALID,24.5515,VALID,334,VALID,0,
2013-01-13, 02:28:04,VALID,1008.75,VALID,0,VALID,104,VALID,0,VALID,24.532,VALID,334,VALID,0,
2013-01-13, 02:29:04,VALID,1008.79,VALID,0,VALID,104,VALID,0,VALID,24.532,VALID,334,VALID,0,
2013-01-13, 02:30:04,VALID,1008.81,VALID,0,VALID,104,VALID,0,VALID,24.532,VALID,334,VALID,0,
2013-01-13, 02:31:04,VALID,1008.79,VALID,0,VALID,104,VALID,0,VALID,24.5515,VALID,334,VALID,0,
2013-01-13, 02:32:04,VALID,1008.83,VALID,0,VALID,104,VALID,0,VALID,24.5515,VALID,334,VALID,0,
2013-01-13, 02:33:04,VALID,1008.8,VALID,0,VALID,104,VALID,0,VALID,24.532,VALID,334,VALID,0,
2013-01-13, 02:34:04,VALID,1008.79,VALID,0,VALID,104,VALID,0,VALID,24.5301,VALID,334,VALID,0,
2013-01-13, 02:35:04,VALID,1008.78,VALID,0,VALID,104,VALID,0,VALID,24.532,VALID,334,VALID,0,
2013-01-13, 02:36:04,VALID,1008.77,VALID,0,VALID,104,VALID,0,VALID,24.532,VALID,334,VALID,0,
2013-01-13, 02:37:04,VALID,1008.76,VALID,0,VALID,104,VALID,0,VALID,24.532,VALID,334,VALID,0,
2013-01-13, 02:38:04,VALID,1008.79,VALID,0,VALID,104,VALID,0,VALID,24.532,VALID,334,VALID,0,
2013-01-13, 02:39:04,VALID,1008.77,VALID,0,VALID,104,VALID,0,VALID,24.532,VALID,334,VALID,0,
2013-01-13, 02:40:04,VALID,1008.78,VALID,0,VALID,104,VALID,0,VALID,24.532,VALID,334,VALID,0,
2013-01-13, 02:41:04,VALID,1008.8,VALID,0,VALID,104,VALID,0,VALID,24.5125,VALID,334,VALID,0,
2013-01-13, 02:42:04,VALID,1008.79,VALID,0,VALID,104,VALID,0,VALID,24.5125,VALID,334,VALID,0,
2013-01-13, 02:43:04,VALID,1008.76,VALID,0,VALID,104,VALID,0,VALID,24.493,VALID,334,VALID,0,
2013-01-13, 02:44:04,VALID,1008.77,VALID,0,VALID,104,VALID,0,VALID,24.493,VALID,334,VALID,0,
2013-01-13, 02:45:04,VALID,1008.78,VALID,0,VALID,104,VALID,0,VALID,24.4735,VALID,334,VALID,0,
2013-01-13, 02:46:04,VALID,1008.8,VALID,0,VALID,104,VALID,0,VALID,24.4735,VALID,334,VALID,0,
2013-01-13, 02:47:04,VALID,1008.8,VALID,0,VALID,104,VALID,0,VALID,24.493,VALID,334,VALID,0,
2013-01-13, 02:48:04,VALID,1008.82,VALID,0,VALID,104,VALID,0,VALID,24.4735,VALID,334,VALID,0,
2013-01-13, 02:49:04,VALID,1008.81,VALID,0,VALID,104,VALID,0,VALID,24.454,VALID,334,VALID,0,
2013-01-13, 02:50:04,VALID,1008.84,VALID,0,VALID,104,VALID,0,VALID,24.454,VALID,334,VALID,0,
2013-01-13, 02:51:04,VALID,1008.85,VALID,0,VALID,104,VALID,0,VALID,24.454,VALID,334,VALID,0,
2013-01-13, 02:52:04,VALID,1008.82,VALID,0,VALID,104,VALID,0,VALID,24.454,VALID,334,VALID,0,
2013-01-13, 02:53:04,VALID,1008.86,VALID,0,VALID,104,VALID,0,VALID,24.4345,VALID,334,VALID,0,
2013-01-13, 02:54:04,VALID,1008.83,VALID,0,VALID,104,VALID,0,VALID,24.454,VALID,334,VALID,0,
2013-01-13, 02:55:04,VALID,1008.82,VALID,0,VALID,104,VALID,0,VALID,24.4345,VALID,334,VALID,0,
2013-01-13, 02:56:04,VALID,1008.81,VALID,0,VALID,104,VALID,0,VALID,24.4559,VALID,334,VALID,0,
2013-01-13, 02:57:04,VALID,1008.79,VALID,0,VALID,104,VALID,0,VALID,24.4345,VALID,334,VALID,0.239453,
2013-01-13, 02:58:04,VALID,1008.78,VALID,0,VALID,104,VALID,0,VALID,24.415,VALID,334,VALID,0.129688,
2013-01-13, 02:59:04,VALID,1008.81,VALID,0,VALID,104,VALID,0,VALID,24.3956,VALID,334,VALID,0.304688,
2013-01-13, 03:00:04,VALID,1008.8,VALID,0,VALID,104,VALID,0,VALID,24.3956,VALID,334,VALID,0.245703,
2013-01-13, 03:01:04,VALID,1008.82,VALID,0,VALID,104,VALID,0,VALID,24.3761,VALID,334,VALID,0.236328,
2013-01-13, 03:02:04,VALID,1008.84,VALID,0,VALID,104,VALID,0.112112,VALID,24.3742,VALID,334,VALID,0.180078,
2013-01-13, 03:03:04,VALID,1008.82,VALID,0,VALID,104,VALID,0.112112,VALID,24.3547,VALID,334,VALID,0.342187,
2013-01-13, 03:04:04,VALID,1008.82,VALID,0,VALID,104,VALID,0,VALID,24.3352,VALID,334,VALID,0.368359,
2013-01-13, 03:05:04,VALID,1008.83,VALID,0,VALID,104,VALID,0.112112,VALID,24.3547,VALID,334,VALID,0.302734,
2013-01-13, 03:06:04,VALID,1008.81,VALID,0,VALID,104,VALID,0.112112,VALID,24.3352,VALID,334,VALID,0.284375,
2013-01-13, 03:07:04,VALID,1008.83,VALID,0,VALID,104,VALID,0.112112,VALID,24.3158,VALID,334,VALID,0.277344,
2013-01-13, 03:08:04,VALID,1008.84,VALID,0,VALID,104,VALID,0.112112,VALID,24.2944,VALID,334,VALID,0.269922,
2013-01-13, 03:09:04,VALID,1008.84,VALID,0,VALID,104,VALID,0.112112,VALID,24.2749,VALID,334,VALID,0.197656,
2013-01-13, 03:10:04,VALID,1008.85,VALID,0,VALID,104,VALID,0.112112,VALID,24.2963,VALID,334,VALID,0.391406,
2013-01-13, 03:11:04,VALID,1008.85,VALID,0,VALID,104,VALID,0.112112,VALID,24.2768,VALID,334,VALID,0.356641,
2013-01-13, 03:12:04,VALID,1008.83,VALID,0,VALID,104,VALID,0.112112,VALID,24.2573,VALID,334,VALID,0.388281,
2013-01-13, 03:13:04,VALID,1008.83,VALID,0,VALID,104,VALID,0.112112,VALID,24.2573,VALID,334,VALID,0.184375,
2013-01-13, 03:14:04,VALID,1008.84,VALID,0,VALID,104,VALID,0.112112,VALID,24.2165,VALID,334,VALID,0.172656,
2013-01-13, 03:15:04,VALID,1008.84,VALID,0,VALID,104,VALID,0.112112,VALID,24.2183,VALID,334,VALID,0.306641,
2013-01-13, 03:16:04,VALID,1008.81,VALID,0,VALID,104,VALID,0.112112,VALID,24.2183,VALID,334,VALID,0.214062,
2013-01-13, 03:17:04,VALID,1008.83,VALID,0,VALID,104,VALID,0,VALID,24.2007,VALID,334,VALID,0.264062,
2013-01-13, 03:18:04,VALID,1008.86,VALID,0,VALID,104,VALID,0,VALID,24.222,VALID,334,VALID,0.316406,
2013-01-13, 03:19:04,VALID,1008.86,VALID,0,VALID,104,VALID,0,VALID,24.1617,VALID,334,VALID,0.0808594,
2013-01-13, 03:20:04,VALID,1008.87,VALID,0,VALID,104,VALID,0,VALID,24.0643,VALID,334,VALID,0,
2013-01-13, 03:21:04,VALID,1008.85,VALID,0,VALID,104,VALID,0,VALID,24.183,VALID,334,VALID,0,
2013-01-13, 03:22:04,VALID,1008.85,VALID,0,VALID,104,VALID,0,VALID,24.1617,VALID,334,VALID,0,
2013-01-13, 03:23:04,VALID,1008.8,VALID,0,VALID,104,VALID,0,VALID,24.2007,VALID,334,VALID,0,
2013-01-13, 03:24:04,VALID,1008.83,VALID,0,VALID,104,VALID,0,VALID,24.183,VALID,334,VALID,0,
2013-01-13, 03:25:04,VALID,1008.84,VALID,0,VALID,104,VALID,0,VALID,24.1617,VALID,334,VALID,0,
2013-01-13, 03:26:04,VALID,1008.82,VALID,0,VALID,104,VALID,0,VALID,24.1617,VALID,334,VALID,0,
2013-01-13, 03:27:04,VALID,1008.83,VALID,0,VALID,104,VALID,0,VALID,24.1812,VALID,334,VALID,0,
2013-01-13, 03:28:04,VALID,1008.85,VALID,0,VALID,104,VALID,0,VALID,24.1617,VALID,334,VALID,0,
2013-01-13, 03:29:04,VALID,1008.87,VALID,0,VALID,104,VALID,0,VALID,24.2007,VALID,334,VALID,0,
2013-01-13, 03:30:04,VALID,1008.85,VALID,0,VALID,104,VALID,0,VALID,24.1617,VALID,334,VALID,0,
2013-01-13, 03:31:04,VALID,1008.87,VALID,0,VALID,104,VALID,0,VALID,24.183,VALID,334,VALID,0,
2013-01-13, 03:32:04,VALID,1008.89,VALID,0,VALID,104,VALID,0,VALID,24.2007,VALID,334,VALID,0,
2013-01-13, 03:33:04,VALID,1008.92,VALID,0,VALID,104,VALID,0.112112,VALID,24.1599,VALID,334,VALID,0,
2013-01-13, 03:34:04,VALID,1008.93,VALID,0,VALID,104,VALID,0.112112,VALID,24.2202,VALID,334,VALID,0,
2013-01-13, 03:35:04,VALID,1008.93,VALID,0,VALID,104,VALID,0,VALID,24.2007,VALID,334,VALID,0,
2013-01-13, 03:36:04,VALID,1008.91,VALID,0,VALID,104,VALID,0,VALID,24.2378,VALID,334,VALID,0,
2013-01-13, 03:37:04,VALID,1008.94,VALID,0,VALID,104,VALID,0,VALID,24.2396,VALID,334,VALID,0,
2013-01-13, 03:38:04,VALID,1008.93,VALID,0,VALID,104,VALID,0,VALID,24.2183,VALID,334,VALID,0.204688,
2013-01-13, 03:39:04,VALID,1008.91,VALID,0,VALID,104,VALID,0,VALID,24.2183,VALID,334,VALID,0.407813,
2013-01-13, 03:40:04,VALID,1008.88,VALID,0,VALID,104,VALID,0,VALID,24.2591,VALID,334,VALID,0.0800781,
2013-01-13, 03:41:04,VALID,1008.87,VALID,0,VALID,104,VALID,0,VALID,24.2396,VALID,334,VALID,0.0929687,
2013-01-13, 03:42:04,VALID,1008.87,VALID,0,VALID,104,VALID,0,VALID,24.2183,VALID,334,VALID,0,
2013-01-13, 03:43:04,VALID,1008.9,VALID,0,VALID,104,VALID,0.112112,VALID,24.2183,VALID,334,VALID,0,
2013-01-13, 03:44:04,VALID,1008.88,VALID,0,VALID,104,VALID,0.112112,VALID,24.2202,VALID,334,VALID,0,
2013-01-13, 03:45:04,VALID,1008.87,VALID,0,VALID,104,VALID,0,VALID,24.1988,VALID,334,VALID,0,
2013-01-13, 03:46:04,VALID,1008.9,VALID,0,VALID,104,VALID,0,VALID,24.2183,VALID,334,VALID,0,
2013-01-13, 03:47:04,VALID,1008.91,VALID,0,VALID,104,VALID,0,VALID,24.2202,VALID,334,VALID,0,
2013-01-13, 03:48:04,VALID,1008.89,VALID,0,VALID,104,VALID,0,VALID,24.2007,VALID,334,VALID,0,
2013-01-13, 03:49:04,VALID,1008.91,VALID,0,VALID,104,VALID,0,VALID,24.2415,VALID,334,VALID,0,
2013-01-13, 03:50:04,VALID,1008.91,VALID,0,VALID,104,VALID,0,VALID,24.2415,VALID,334,VALID,0.150391,
2013-01-13, 03:51:04,VALID,1008.93,VALID,0,VALID,104,VALID,0,VALID,24.2396,VALID,334,VALID,0,
2013-01-13, 03:52:04,VALID,1008.95,VALID,0,VALID,104,VALID,0,VALID,24.3,VALID,334,VALID,0,